Waarnemingen

Advertentie
Mijn weer
Yeovilton, Groot Brittannië (3853): temperatuur & dauwpunt: 08.08.2018 14:00:00 - 14.08.2018 14:00:00 (BST)Yeovilton, Groot Brittannië (3853): temperatuur -20cm & temperatuur -100cm: 08.08.2018 14:00:00 - 14.08.2018 14:00:00 (BST)Yeovilton, Groot Brittannië (3853): windsnelheid & windstoten: 08.08.2018 14:00:00 - 14.08.2018 14:00:00 (BST)Yeovilton, Groot Brittannië (3853): windrichting: 08.08.2018 14:00:00 - 14.08.2018 14:00:00 (BST)Yeovilton, Groot Brittannië (3853): luchtdruk: 08.08.2018 14:00:00 - 14.08.2018 14:00:00 (BST)Yeovilton, Groot Brittannië (3853): zicht: 08.08.2018 14:00:00 - 14.08.2018 14:00:00 (BST)Yeovilton, Groot Brittannië (3853): Zonneschijnduur: 08.08.2018 14:00:00 - 14.08.2018 14:00:00 (BST)Yeovilton, Groot Brittannië (3853): neerslag: 08.08.2018 14:00:00 - 14.08.2018 14:00:00 (BST)
Datum & Tijd tt [°C] td [°C] tt -20cm [°C] tt -100cm [°C] ff [km/u] ff [kn] fx [km/u] fx [kn] dd ppp [hPa] vv [km] sd [min] rr [mm]
14.08.2018 14:00:00 21,6 15,5 - - 11 6 - - W 1017,9 10 0 0,0
14.08.2018 13:00:00 21,3 15,6 - - 18 10 - - NW 1017,9 10 12 0,0
14.08.2018 12:00:00 22,0 13,6 - - 22 12 - - W 1017,4 10 36 0,0
14.08.2018 11:00:00 21,8 14,9 - - 16 9 - - WZW 1017,4 20 42 0,0
14.08.2018 10:00:00 19,7 15,0 19,4 18,4 15 8 - - WZW 1017,2 10 42 0,0
14.08.2018 09:00:00 18,8 15,7 - - 15 8 - - WZW 1017,0 26 24 0,0
14.08.2018 08:00:00 16,7 14,7 - - 5 3 - - WZW 1016,8 10 0 0,0
14.08.2018 07:00:00 15,4 14,4 - - 2 1 - - WZW 1016,5 10 0 0,0
14.08.2018 06:00:00 15,2 14,0 - - 5 3 - - WZW 1015,8 29 0 0,0
14.08.2018 05:00:00 14,6 13,6 - - 8 4 - - WZW 1015,6 30 0 0,0
14.08.2018 04:00:00 14,4 13,2 - - 8 4 - - WZW 1015,3 29 0 0,0
14.08.2018 03:00:00 14,0 12,9 - - 9 5 - - WZW 1015,0 30 0 0,0
14.08.2018 02:00:00 13,6 12,6 - - 5 3 - - WZW 1015,0 19 0 0,0
14.08.2018 01:00:00 14,3 13,0 - - 13 7 - - W 1014,5 20 - 0,0
14.08.2018 00:00:00 14,2 12,9 - - 9 5 - - W 1014,1 10 0 0,0
13.08.2018 23:00:00 15,6 13,1 - - 13 7 - - W 1013,8 10 0 0,0
13.08.2018 22:00:00 16,7 13,1 - - 11 6 - - W 1013,2 10 0 0,0
13.08.2018 21:00:00 18,2 13,0 - - 16 9 - - WNW 1012,4 10 12 0,0
13.08.2018 20:00:00 20,1 13,0 - - 22 12 - - WNW 1011,5 10 30 0,0
13.08.2018 19:00:00 20,2 14,0 - - 21 11 - - WNW 1010,9 10 0 0,0
13.08.2018 18:00:00 20,5 14,5 - - 29 16 - - WNW 1010,4 10 0 0,0
13.08.2018 17:00:00 21,8 14,9 - - 31 17 - - WNW 1009,8 10 42 0,0
13.08.2018 16:00:00 21,6 14,3 - - 28 15 - - WNW 1009,4 10 36 0,0
13.08.2018 15:00:00 21,8 14,6 - - 26 14 - - NW 1009,2 25 30 0,0
13.08.2018 14:00:00 22,3 15,5 - - 22 12 - - NW 1008,9 10 18 0,0
13.08.2018 13:00:00 19,7 15,4 - - 16 9 - - W 1008,8 20 0 0,2
13.08.2018 12:00:00 19,9 15,7 - - 5 3 - - NW 1008,6 10 0 0,0
13.08.2018 11:00:00 19,0 15,0 - - 11 6 - - WNW 1008,4 10 18 0,0
13.08.2018 10:00:00 17,8 15,8 19,4 18,5 15 8 - - W 1008,0 15 12 0,0
13.08.2018 09:00:00 17,3 16,0 - - 11 6 - - W 1007,8 30 24 0,0
13.08.2018 08:00:00 17,2 16,0 - - 15 8 - - W 1007,4 40 42 0,0
13.08.2018 07:00:00 15,5 15,1 - - 9 5 - - W 1006,7 10 12 0,0
13.08.2018 06:00:00 15,2 14,8 - - 8 4 - - W 1006,4 24 0 0,0
13.08.2018 05:00:00 14,9 14,5 - - 8 4 - - WZW 1006,1 24 0 0,0
13.08.2018 04:00:00 15,0 14,4 - - 5 3 - - WZW 1006,0 40 0 0,0
13.08.2018 03:00:00 15,2 14,6 - - 4 2 - - ZW 1006,1 45 0 0,0
13.08.2018 02:00:00 15,5 15,0 - - 8 4 - - ZZW 1006,1 35 0 0,0
13.08.2018 01:00:00 15,9 15,6 - - 4 2 - - ZW 1006,4 19 - 0,0
13.08.2018 00:00:00 16,1 15,8 - - 4 2 - - Z 1006,6 28 0 0,4
12.08.2018 23:00:00 16,5 15,8 - - 4 2 - - NW 1006,6 5 0 0,2
12.08.2018 22:00:00 16,7 16,0 - - 8 4 - - WZW 1006,6 15 0 0,6
12.08.2018 21:00:00 17,1 15,7 - - 9 5 - - Z 1006,4 21 0 0,0
12.08.2018 20:00:00 17,7 15,4 - - 18 10 - - Z 1006,4 40 36 0,0
12.08.2018 19:00:00 18,7 16,0 - - 21 11 - - ZZW 1006,5 10 24 0,0
12.08.2018 18:00:00 19,2 16,5 - - 18 10 - - Z 1006,8 35 6 0,0
12.08.2018 17:00:00 19,0 16,9 - - 21 11 - - Z 1007,0 30 6 0,0
12.08.2018 16:00:00 18,5 17,1 - - 15 8 - - Z 1007,8 21 0 0,0
12.08.2018 15:00:00 17,5 16,7 - - 15 8 - - Z 1008,3 5 0 0,0
12.08.2018 14:00:00 17,4 16,7 - - 21 11 - - Z 1008,5 5 0 0,2
12.08.2018 13:00:00 17,1 16,3 - - 21 11 - - ZZO 1008,8 5 0 0,0
12.08.2018 12:00:00 17,1 16,2 - - 18 10 - - ZZO 1009,3 5 0 0,0
12.08.2018 11:00:00 17,5 16,6 - - 18 10 - - Z 1009,6 10 0 0,4
12.08.2018 10:00:00 17,1 16,2 19,2 18,7 24 13 - - Z 1009,5 22 0 0,2
12.08.2018 09:00:00 17,2 16,4 - - 21 11 - - Z 1009,8 16 0 0,6
12.08.2018 08:00:00 16,4 15,8 - - 16 9 - - ZZO 1010,5 8 0 0,4
12.08.2018 07:00:00 16,2 15,3 - - 18 10 - - ZZO 1011,0 23 0 4,0
12.08.2018 06:00:00 16,0 15,2 - - 21 11 - - Z 1011,4 18 0 1,2
12.08.2018 05:00:00 16,3 15,2 - - 18 10 - - Z 1012,1 18 0 0,0
12.08.2018 04:00:00 16,4 15,1 - - 18 10 - - Z 1012,7 10 0 0,0
12.08.2018 03:00:00 16,7 15,2 - - 26 14 - - Z 1013,3 35 0 0,2
12.08.2018 02:00:00 18,0 15,1 - - 21 11 - - Z 1014,0 45 0 0,0
12.08.2018 01:00:00 17,7 15,2 - - 15 8 - - Z 1014,8 40 - 0,0
12.08.2018 00:00:00 17,6 15,5 - - 18 10 - - Z 1015,7 35 0 1,4
11.08.2018 23:00:00 17,7 15,4 - - 18 10 - - Z 1016,5 16 0 0,0
11.08.2018 22:00:00 17,5 15,2 - - 22 12 - - Z 1017,0 10 0 0,0
11.08.2018 21:00:00 17,5 14,8 - - 16 9 - - Z 1017,6 40 0 0,0
11.08.2018 20:00:00 17,6 15,2 - - 21 11 - - Z 1017,7 30 0 0,0
11.08.2018 19:00:00 17,9 15,5 - - 22 12 - - Z 1018,1 30 0 0,0
11.08.2018 18:00:00 18,0 15,8 - - 24 13 - - Z 1019,0 30 0 0,0
11.08.2018 17:00:00 17,0 15,6 - - 21 11 - - Z 1019,5 21 0 0,6
11.08.2018 16:00:00 16,7 15,6 - - 18 10 - - Z 1020,1 15 0 0,6
11.08.2018 15:00:00 17,8 16,1 - - 24 13 - - Z 1020,8 11 0 0,2
11.08.2018 14:00:00 18,0 15,8 - - 21 11 - - Z 1021,0 40 0 0,2
11.08.2018 13:00:00 16,8 15,5 - - 18 10 - - ZZO 1021,7 6 0 0,0
11.08.2018 12:00:00 17,2 13,9 - - 21 11 - - ZZO 1022,1 10 0 0,0
11.08.2018 11:00:00 16,5 12,4 - - 18 10 - - ZZO 1022,5 50 0 0,0
11.08.2018 10:00:00 16,6 10,6 18,7 19,0 15 8 - - ZZO 1022,8 10 0 0,0
11.08.2018 09:00:00 15,4 11,0 - - 9 5 - - ZO 1023,2 10 6 0,0
11.08.2018 08:00:00 11,9 10,2 - - 5 3 - - O 1023,2 45 48 0,0
11.08.2018 07:00:00 8,8 7,6 - - 4 2 - - O 1023,2 45 36 0,0
11.08.2018 06:00:00 6,6 6,1 - - 5 3 - - OZO 1023,1 50 0 0,0
11.08.2018 05:00:00 6,8 6,3 - - 4 2 - - OZO 1023,2 10 0 0,0
11.08.2018 04:00:00 7,5 6,8 - - 4 2 - - O 1023,0 50 0 0,0
11.08.2018 03:00:00 7,6 6,7 - - 5 3 - - O 1023,0 50 0 0,0
11.08.2018 02:00:00 9,2 7,7 - - 4 2 - - ZZO 1023,1 50 0 0,0
11.08.2018 01:00:00 10,6 8,6 - - 2 1 - - WZW 1022,9 10 - 0,0
11.08.2018 00:00:00 11,1 8,5 - - 4 2 - - W 1022,7 50 0 0,0
10.08.2018 23:00:00 11,9 8,5 - - 8 4 - - ZW 1022,4 10 0 0,0
10.08.2018 22:00:00 12,5 8,7 - - 9 5 - - ZW 1021,8 10 0 0,0
10.08.2018 21:00:00 14,7 9,3 - - 15 8 - - WNW 1021,1 50 30 0,0
10.08.2018 20:00:00 17,0 9,4 - - 26 14 - - NW 1020,2 45 60 0,0
10.08.2018 19:00:00 18,6 10,0 - - 28 15 - - WNW 1019,5 10 36 0,0
10.08.2018 18:00:00 19,0 9,0 - - 31 17 46 25 WNW 1019,1 45 24 0,0
10.08.2018 17:00:00 19,2 10,8 - - 26 14 - - NW 1018,5 40 18 0,0
10.08.2018 16:00:00 18,6 13,2 - - 21 11 - - W 1018,1 50 6 0,0
10.08.2018 15:00:00 17,8 13,8 - - 28 15 - - WNW 1017,8 10 18 0,2
10.08.2018 14:00:00 19,1 13,9 - - 18 10 - - WZW 1017,0 9 24 0,4
10.08.2018 13:00:00 18,7 13,7 - - 26 14 46 25 W 1016,8 10 24 0,4
10.08.2018 12:00:00 19,5 12,9 - - 24 13 - - W 1016,4 4,0 0 0,0
10.08.2018 11:00:00 17,8 14,2 - - 24 13 - - ZZW 1016,5 10 0 0,0
10.08.2018 10:00:00 16,9 12,7 19,7 19,2 28 15 - - Z 1016,7 10 0 0,0
10.08.2018 09:00:00 16,3 12,6 - - 16 9 - - ZZW 1017,3 35 0 0,0
10.08.2018 08:00:00 15,1 11,9 - - 13 7 - - ZZW 1017,9 10 6 0,0
10.08.2018 07:00:00 14,0 11,3 - - 15 8 - - ZZW 1018,0 10 30 0,0
10.08.2018 06:00:00 11,8 9,6 - - 13 7 - - ZZW 1018,1 50 0 0,0
10.08.2018 05:00:00 12,0 9,6 - - 13 7 - - ZZW 1017,9 10 0 0,0
10.08.2018 04:00:00 11,9 9,4 - - 5 3 - - ZZW 1018,1 10 0 0,0
10.08.2018 03:00:00 11,9 9,5 - - 5 3 - - ZW 1018,3 50 0 0,0
10.08.2018 02:00:00 11,1 9,0 - - 8 4 - - ZW 1018,3 50 0 0,0
10.08.2018 01:00:00 12,2 9,6 - - 4 2 - - ZW 1018,3 45 - 0,0
10.08.2018 00:00:00 12,3 9,2 - - 5 3 - - ZW 1018,0 10 0 0,0
09.08.2018 23:00:00 13,2 9,1 - - 4 2 - - ZW 1017,6 10 0 0,0
09.08.2018 22:00:00 13,8 9,1 - - 9 5 - - W 1017,2 10 0 0,0
09.08.2018 21:00:00 15,6 10,0 - - 15 8 - - W 1016,6 20 24 0,0
09.08.2018 20:00:00 18,0 10,1 - - 21 11 - - NW 1015,9 10 54 0,0
09.08.2018 19:00:00 18,8 9,8 - - 24 13 - - NW 1015,2 20 30 0,0
09.08.2018 18:00:00 18,9 9,0 - - 26 14 - - NW 1014,9 10 42 0,0
09.08.2018 17:00:00 19,9 9,4 - - 29 16 - - NW 1014,6 10 36 0,0
09.08.2018 16:00:00 20,2 9,0 - - 22 12 - - WNW 1014,4 20 54 0,0
09.08.2018 15:00:00 20,3 9,1 - - 21 11 - - WNW 1014,7 10 36 0,0
09.08.2018 14:00:00 19,1 10,1 - - 21 11 - - NW 1014,6 10 6 0,0
09.08.2018 13:00:00 19,5 10,5 - - 18 10 - - NW 1014,1 20 0 0,0
09.08.2018 12:00:00 19,3 10,5 - - 16 9 - - NNW 1013,9 20 18 0,0
09.08.2018 11:00:00 18,5 12,0 - - 15 8 - - NW 1013,9 10 36 0,0
09.08.2018 10:00:00 16,3 13,1 20,7 19,2 8 4 - - WNW 1014,0 40 36 0,0
09.08.2018 09:00:00 14,0 13,0 - - 5 3 - - W 1013,8 35 0 0,0
09.08.2018 08:00:00 13,3 12,6 - - 4 2 - - WZW 1013,9 30 0 0,0
09.08.2018 07:00:00 13,0 12,3 - - 5 3 - - WZW 1013,6 26 0 0,0
09.08.2018 06:00:00 13,0 12,4 - - 5 3 - - WNW 1013,7 21 0 0,0
09.08.2018 05:00:00 13,5 13,0 - - 4 2 - - W 1013,4 17 0 0,0
09.08.2018 04:00:00 13,9 13,4 - - 4 2 - - WZW 1013,6 14 0 0,0
09.08.2018 03:00:00 14,3 13,7 - - 2 1 - - W 1013,6 18 0 0,0
09.08.2018 02:00:00 14,4 13,7 - - 4 2 - - WZW 1014,0 21 0 0,0
09.08.2018 01:00:00 14,3 13,7 - - 4 2 - - ZZW 1014,4 30 - 0,0
09.08.2018 00:00:00 14,2 13,7 - - 4 2 - - ZW 1014,0 10 0 0,0
08.08.2018 23:00:00 15,0 14,0 - - 4 2 - - W 1014,0 10 0 0,0
08.08.2018 22:00:00 15,8 14,0 - - 8 4 - - NW 1014,0 10 0 0,0
08.08.2018 21:00:00 16,0 14,3 - - 8 4 - - W 1013,4 10 0 0,0
08.08.2018 20:00:00 16,3 14,1 - - 8 4 - - W 1013,3 50 0 0,0
08.08.2018 19:00:00 16,7 14,4 - - 5 3 - - ZW 1013,2 10 0 0,0
08.08.2018 18:00:00 16,1 14,8 - - 8 4 - - ZZO 1013,0 10 0 0,2
08.08.2018 17:00:00 15,6 14,0 - - 4 2 - - W 1013,2 7 0 4,8
08.08.2018 16:00:00 19,5 12,9 - - 24 13 - - ZZW 1012,5 10 12 0,0
08.08.2018 15:00:00 21,1 12,9 - - 28 15 - - ZZW 1012,4 10 12 0,0
08.08.2018 14:00:00 20,3 12,5 - - 28 15 - - ZZW 1012,2 15 24 0,0

tt = temperatuur
td = dauwpunt
tt -20cm = temperatuur -20cm
tt -100cm = temperatuur -100cm
ff = windsnelheid
fx = windstoten
dd = windrichting
ppp = luchtdruk
vv = zicht
sd = Zonneschijnduur
rr = neerslag

Weerstations in de omgeving